GFSSW_925_temp_258.txt.gz
Temp
17 17 17 18 19 20 20 20 20 21 21 22 23 23 24 25 26 26 26 29 28 26 26 24 24 24 23 22 23 23 23 23 25 25 26 28 27 28 27 25 27 26 23 22 20
17 17 18 18 20 20 20 20 20 21 21 22 22 23 24 24 25 24 29 29 28 27 25 25 25 25 23 23 23 24 23 25 25 25 24 26 27 27 26 25 24 22 22 21 20
18 18 18 19 20 20 20 20 21 21 21 22 22 23 23 25 24 29 28 29 27 27 27 26 26 26 25 23 24 24 25 26 25 26 25 26 27 28 25 25 24 22 21 21 20
18 18 19 19 19 20 21 21 21 21 21 22 22 23 24 24 27 28 29 29 27 27 27 26 28 26 26 25 25 25 26 26 25 26 26 26 26 27 26 26 25 23 22 22 21
18 19 19 20 20 21 21 21 21 21 21 22 22 23 23 25 27 28 28 29 27 27 27 28 28 28 28 28 26 26 26 25 25 26 26 26 26 27 26 26 25 24 23 22 22
19 19 20 20 20 21 21 22 22 22 22 22 22 23 22 27 28 28 28 28 27 26 27 27 29 29 28 28 27 27 26 24 22 25 25 26 27 27 27 25 24 24 23 22 22
19 19 20 20 21 22 22 22 23 23 22 22 22 22 22 27 28 29 28 28 28 27 28 28 29 30 28 28 28 27 26 25 24 23 24 26 27 27 26 25 24 23 23 23 23
19 20 20 21 21 22 23 23 24 24 23 22 22 21 25 28 28 29 29 28 28 28 28 29 29 29 29 29 28 28 27 25 25 24 25 25 26 27 26 25 24 24 24 24 23
20 20 21 21 22 24 24 24 24 24 23 23 22 21 28 29 30 30 30 29 30 30 29 28 29 27 27 27 26 28 26 25 25 25 26 26 25 26 26 26 25 24 24 25 24
20 21 21 22 23 25 25 24 24 23 22 22 21 24 27 28 29 30 30 30 29 29 28 27 23 24 23 24 26 27 27 28 27 26 25 26 26 25 26 26 25 25 25 25 24
20 21 22 23 24 25 26 25 19 21 23 24 24 25 25 28 29 30 30 29 28 25 26 25 24 25 26 27 28 28 27 27 28 29 25 26 27 25 26 26 26 25 25 25 25
20 21 22 23 25 25 26 20 22 22 21 23 23 23 25 27 28 29 29 28 27 25 26 24 24 26 27 28 28 29 28 27 27 29 26 27 26 26 26 26 26 26 25 26 24
20 21 22 24 25 25 23 23 23 23 20 23 25 26 27 28 28 28 28 27 26 27 25 24 27 27 27 26 27 26 27 27 27 26 27 28 26 26 26 27 27 27 27 26 25
20 21 23 23 24 23 23 24 24 24 20 25 27 28 28 27 28 28 28 28 26 26 24 26 26 27 26 27 26 26 28 28 27 26 25 27 24 25 25 26 26 26 26 26 26
20 21 22 23 22 22 24 24 25 24 21 27 27 27 24 26 25 26 26 28 27 26 24 26 26 26 26 26 27 25 27 27 27 26 25 26 25 25 24 25 26 27 27 27 26
20 21 22 23 23 24 24 24 24 21 23 27 25 24 24 22 23 24 24 23 24 23 23 24 24 24 26 25 26 25 26 23 22 21 23 25 25 24 23 26 26 27 27 28 27
21 21 22 23 23 24 24 21 20 21 24 24 24 22 21 22 22 22 21 20 21 22 20 21 23 23 24 23 23 21 20 20 23 23 23 23 24 24 27 27 27 27 27 28 28
21 22 23 24 25 24 23 20 23 23 24 24 23 21 22 21 22 21 22 20 21 19 17 19 21 22 23 24 24 22 21 19 23 21 22 22 24 26 27 28 28 28 28 28 28
22 22 22 24 25 24 18 19 20 22 24 23 22 21 21 21 22 21 20 21 21 21 20 18 20 22 24 24 24 23 21 22 21 20 19 21 23 25 27 27 29 28 27 27 28
21 20 21 23 23 23 17 19 21 22 23 23 23 22 21 20 21 20 21 21 21 22 20 21 19 20 22 22 23 23 22 20 17 22 22 20 23 23 26 26 27 27 27 27 28
19 18 21 22 22 16 18 18 21 24 24 23 22 20 20 21 21 20 21 21 20 21 19 19 17 19 21 21 20 18 20 18 17 16 19 18 20 22 26 23 25 26 26 26 28
15 19 22 22 18 11 18 20 22 23 22 22 21 21 21 21 21 21 20 21 19 20 20 18 14 17 19 19 18 19 20 16 16 18 16 17 18 24 23 24 24 24 25 23 27
13 13 22 22 18 16 18 22 23 23 23 22 22 22 21 20 20 20 20 20 19 20 20 19 15 14 16 17 18 19 21 20 16 14 16 18 19 25 23 22 20 21 23 22 23
13 18 16 13 12 18 20 22 23 22 21 19 20 20 19 19 17 19 19 20 18 20 20 16 13 15 15 17 17 18 19 19 18 16 17 17 19 20 22 19 20 21 21 21 20
11 14 14 16 16 16 17 20 22 22 21 19 20 20 19 19 18 18 18 17 18 19 17 15 15 14 14 16 17 16 17 18 18 17 17 20 20 20 19 19 19 18 20 21 20
13 13 11 12 13 18 14 18 20 21 21 20 19 19 18 17 18 17 18 16 17 17 16 12 14 14 16 16 16 17 18 18 18 19 19 19 18 19 19 18 19 18 19 20 20
12 13 12 11 13 15 16 17 19 20 19 19 18 17 18 18 17 17 15 14 16 16 13 14 12 12 14 15 16 15 17 18 18 19 19 18 19 19 19 18 18 18 18 18 18

GFSSW_925_temp_261.txt.gz
Temp
17 18 18 20 20 20 20 21 21 21 22 22 23 24 24 25 27 27 29 28 26 26 25 24 25 24 24 24 24 25 27 25 27 27 27 29 28 29 28 27 27 27 26 25 22
18 18 19 19 20 20 20 20 21 21 21 22 22 23 24 25 26 26 28 27 27 26 26 26 26 25 24 24 26 26 27 27 27 27 27 28 29 28 28 27 26 24 24 23 22
18 19 19 19 19 20 21 21 21 21 21 22 22 23 24 25 27 28 27 27 27 27 26 26 26 26 27 25 26 27 27 27 27 27 27 28 29 29 29 27 27 25 24 23 22
19 19 19 19 20 20 21 21 21 21 22 21 22 23 24 24 29 27 27 27 26 26 26 26 27 28 28 27 27 28 26 27 27 27 28 27 28 29 29 29 28 26 25 24 23
19 19 19 20 20 20 21 21 22 22 22 22 22 23 24 28 29 26 27 26 26 26 28 29 28 29 29 29 27 28 27 27 26 27 27 27 28 29 28 28 28 26 25 25 25
19 19 20 20 21 21 22 22 22 22 22 22 23 23 23 29 27 27 27 27 26 26 28 28 30 31 30 29 28 28 27 26 25 26 27 27 28 28 29 28 27 25 25 26 25
19 20 20 21 21 22 23 23 23 23 23 22 22 23 25 28 27 27 27 27 27 27 29 28 29 31 31 29 28 28 27 27 26 25 27 27 28 28 28 28 27 26 26 26 25
19 20 20 21 22 23 23 24 24 24 23 23 22 23 28 28 28 28 28 27 27 27 28 28 29 31 31 30 29 29 29 29 26 26 28 29 29 28 28 28 27 27 26 26 26
19 20 21 22 23 24 24 24 24 24 23 23 22 23 29 28 29 29 28 29 28 28 28 29 29 29 29 31 30 30 29 29 29 28 27 28 28 28 28 28 27 27 27 27 26
19 21 22 22 23 24 24 24 24 23 23 23 22 27 30 29 28 29 29 29 30 30 30 30 29 30 29 30 29 30 30 29 29 30 26 28 28 29 28 28 28 28 28 27 27
19 21 22 23 24 25 24 24 25 26 24 26 26 26 27 28 28 29 29 29 29 30 30 28 30 30 29 30 30 30 30 30 31 31 29 30 30 30 28 28 28 28 28 28 28
19 21 22 23 24 25 25 24 22 22 26 24 24 25 25 26 29 29 29 30 29 29 28 30 29 29 29 30 30 31 29 30 30 31 30 31 30 31 29 29 29 29 29 29 29
20 21 22 23 24 24 23 22 22 22 26 27 27 27 28 28 28 29 29 28 28 28 29 29 29 28 29 30 30 30 30 29 29 31 31 31 31 29 29 29 29 30 30 29 29
20 21 22 24 24 23 23 23 24 23 27 28 29 29 28 28 29 27 27 29 28 28 27 29 28 28 29 29 29 29 30 30 30 30 31 31 31 31 31 30 29 30 30 30 29
20 21 21 23 23 23 24 24 24 24 26 27 28 27 27 28 26 28 26 29 27 27 28 26 27 28 28 27 28 28 28 29 29 30 30 31 31 33 29 30 30 30 30 30 30
20 21 21 22 22 24 24 24 24 27 25 27 27 26 28 26 26 27 28 27 26 27 27 25 26 27 27 27 27 27 28 28 27 30 29 31 31 33 33 33 33 32 31 31 31
21 22 22 22 23 24 24 24 27 26 25 26 26 25 25 25 26 26 25 24 26 27 26 26 26 26 26 28 28 28 29 29 29 29 30 29 30 32 33 32 32 33 33 32 31
21 22 22 23 23 23 23 26 25 25 25 24 25 24 25 24 24 24 25 25 25 25 24 25 26 26 26 26 26 26 26 27 26 28 30 27 29 32 32 32 31 31 31 32 33
21 21 21 21 23 22 25 25 26 25 26 25 25 25 24 24 25 25 23 24 24 24 25 24 25 24 25 25 25 26 26 25 26 24 26 29 30 31 32 30 29 29 29 29 29
20 20 20 21 22 22 25 23 24 24 25 26 25 24 24 24 25 24 23 23 24 23 23 23 24 23 24 25 25 26 25 26 25 25 26 28 26 30 28 27 27 27 27 27 27
19 23 20 21 22 24 25 24 24 24 25 25 24 24 23 24 23 23 22 23 22 23 23 23 23 24 23 24 24 24 25 24 24 24 26 26 28 28 26 26 26 27 27 27 27
18 24 20 21 24 17 24 22 21 25 24 24 24 24 24 23 23 23 23 23 21 22 23 21 23 23 23 23 21 23 23 24 24 24 24 24 26 30 27 27 27 27 26 26 26
19 20 20 21 24 23 21 24 24 25 24 24 24 24 22 22 22 22 22 22 22 23 23 22 21 22 23 23 23 23 23 23 22 22 23 24 26 28 27 27 26 26 26 24 24
18 23 22 19 17 22 23 23 24 23 23 22 22 22 22 22 20 22 22 21 21 22 19 21 21 22 23 24 22 22 22 22 22 23 24 24 25 26 26 25 25 26 24 23 23
16 17 16 21 21 19 20 22 24 24 22 22 22 23 23 22 21 22 21 21 21 20 20 21 21 20 22 21 22 21 21 22 22 23 22 24 24 25 25 24 24 23 23 22 21
17 17 15 16 16 20 19 20 23 22 23 23 23 22 22 22 23 22 21 21 21 20 20 18 20 18 19 21 21 20 21 21 22 22 22 22 22 25 25 23 23 23 22 21 21
12 12 16 14 18 20 19 20 21 22 21 22 23 22 22 22 22 21 20 20 20 20 19 19 19 18 20 19 19 19 20 22 23 23 23 22 24 25 23 22 22 22 21 21 21

GFSSW_925_temp_264.txt.gz
Temp
18 19 19 20 20 21 21 21 21 21 22 22 22 24 25 27 27 27 32 28 27 26 25 27 27 26 27 29 29 30 33 30 31 32 31 32 32 32 32 30 31 31 31 29 26
18 19 19 20 20 20 21 21 21 21 21 22 22 23 25 26 26 32 28 27 27 27 28 28 29 26 27 30 31 32 33 31 31 31 32 32 33 32 32 31 30 29 29 27 26
18 19 19 20 20 20 21 21 21 21 21 22 23 23 25 26 30 32 28 28 27 26 27 28 29 30 30 30 32 31 31 31 30 31 31 32 32 33 32 31 32 29 28 28 27
19 19 20 20 20 20 21 21 22 22 22 22 23 24 25 23 32 29 28 27 26 25 28 28 31 32 33 31 32 33 31 31 30 31 32 31 32 32 32 32 32 30 29 28 28
19 19 20 20 21 21 21 22 22 22 22 22 23 24 25 32 32 27 28 26 25 27 30 31 31 33 34 33 32 33 31 31 30 31 31 30 31 32 32 32 32 30 29 29 29
19 20 20 21 21 22 22 22 23 23 23 23 23 24 27 32 28 27 27 26 29 29 32 32 33 34 34 33 32 33 32 30 28 30 29 28 30 30 32 32 31 30 30 30 30
19 20 21 21 22 22 23 23 23 24 23 23 23 23 31 31 29 27 28 29 29 31 33 33 33 35 35 33 32 31 32 30 28 29 29 31 31 32 32 32 30 30 30 30 30
19 20 21 22 22 23 24 24 24 24 24 23 23 23 31 28 29 28 29 30 29 29 30 31 31 35 35 34 33 33 34 33 30 29 31 31 32 30 32 32 31 31 31 30 30
19 20 21 22 23 24 24 24 24 24 24 24 25 28 32 29 31 31 31 33 32 31 32 31 33 34 35 35 35 35 33 32 32 32 31 32 31 32 32 32 32 31 31 31 30
20 21 22 22 23 24 24 24 24 24 24 23 25 31 32 32 32 31 30 31 33 34 33 34 35 34 33 34 33 34 35 33 33 33 31 32 33 33 32 33 32 32 32 31 31
20 21 22 23 24 24 24 24 29 30 30 30 32 32 32 31 30 32 32 32 33 34 33 34 34 34 34 33 33 34 34 34 34 32 31 35 34 35 33 33 33 33 32 32 32
20 21 22 23 24 24 25 29 27 27 31 30 30 31 30 30 32 33 32 33 33 33 33 33 34 33 33 33 34 34 34 34 34 34 34 35 35 36 35 33 33 33 33 33 33
20 21 22 23 24 25 27 26 24 24 32 31 32 32 32 32 32 32 33 32 33 32 33 34 34 32 32 33 33 34 33 34 33 34 36 35 36 35 34 34 34 34 34 34 33
20 21 22 24 24 25 28 24 24 25 32 31 32 32 32 33 31 31 31 33 32 32 33 33 32 31 32 32 32 33 33 33 33 33 34 35 35 36 36 35 34 34 34 34 34
20 21 22 22 23 28 26 25 25 26 30 31 31 31 32 32 32 31 30 33 32 31 31 30 31 31 31 31 32 33 32 32 33 33 34 35 34 37 36 36 36 36 35 35 35
20 21 22 23 22 25 24 24 26 30 29 30 31 31 31 32 31 32 32 33 32 32 32 31 30 31 31 31 31 31 32 33 33 34 33 35 35 36 37 36 37 36 36 36 36
20 21 22 22 28 24 24 28 30 30 30 29 30 31 31 31 30 31 31 31 31 30 30 30 30 30 30 31 31 32 33 32 32 33 33 36 35 35 37 36 34 34 35 35 36
21 21 21 21 22 23 27 30 29 30 30 30 30 30 30 30 29 29 30 30 30 30 30 30 29 30 29 30 29 30 31 32 31 33 35 32 33 35 36 34 33 34 34 33 33
21 20 22 23 22 23 29 29 30 30 30 30 30 30 29 29 29 29 29 29 28 28 29 29 29 29 29 29 30 30 30 31 31 32 31 33 34 34 35 33 33 33 33 32 32
20 25 25 22 22 26 29 29 29 30 30 31 30 29 29 29 29 29 28 27 27 28 29 28 28 29 28 29 29 29 30 30 31 29 30 33 32 33 33 31 32 32 32 31 31
21 28 23 22 24 29 29 30 29 29 30 30 29 28 29 28 29 28 28 26 27 27 28 28 28 28 27 28 29 29 29 29 31 31 31 31 33 33 31 31 31 31 32 32 30
24 27 23 22 28 28 29 29 23 29 29 29 29 29 29 28 28 28 27 27 26 27 27 27 28 27 28 28 27 27 29 29 30 29 30 30 30 34 31 31 31 31 31 31 30
25 26 23 25 28 28 27 28 29 29 29 29 28 28 28 27 26 27 27 26 26 26 26 27 27 27 28 28 26 27 28 28 28 29 28 29 31 32 32 31 30 30 30 30 29
24 26 26 26 26 29 28 28 27 28 28 28 28 28 27 27 27 26 26 25 25 26 20 23 26 26 27 28 27 26 26 27 27 27 28 29 30 31 31 30 29 29 29 28 28
21 23 20 25 26 27 28 28 28 27 28 28 27 28 27 26 26 26 26 25 25 21 24 25 24 25 26 26 26 26 26 27 26 26 26 28 28 29 29 28 28 27 27 27 27
21 22 22 21 23 26 22 27 28 26 27 27 27 28 27 26 27 26 26 25 25 24 24 25 23 23 23 25 25 25 26 26 26 26 26 27 27 29 29 29 28 26 26 26 27
17 18 20 16 23 25 25 26 27 27 26 27 28 27 26 26 26 26 26 26 25 24 24 24 23 23 23 24 24 23 25 26 26 27 27 26 27 28 26 26 26 26 25 26 26

GFSSW_925_temp_270.txt.gz
Temp
19 19 20 20 20 21 22 22 22 22 23 23 23 24 26 26 28 27 32 30 28 29 28 29 31 32 32 34 33 26 26 28 31 35 35 37 35 35 36 35 35 34 32 32 31
19 19 20 20 20 21 21 21 22 22 23 23 23 24 25 25 26 31 30 30 29 29 27 32 33 33 35 35 25 21 24 31 37 37 36 37 36 35 35 34 34 33 33 32 32
19 19 20 20 20 21 22 22 22 22 23 23 23 24 24 25 30 33 30 30 29 28 28 33 33 34 34 35 28 24 32 36 36 37 38 37 37 34 33 34 34 32 32 32 32
19 19 20 20 21 21 22 22 23 23 23 23 23 24 24 25 33 30 30 29 29 28 30 33 35 34 35 32 35 35 36 35 36 36 36 35 37 36 36 35 35 33 32 32 32
19 19 20 21 21 22 22 23 23 23 24 24 23 23 26 31 34 30 29 29 28 29 34 36 36 36 35 36 34 34 36 36 36 35 33 34 35 35 35 35 34 33 33 32 33
19 20 20 21 22 22 23 23 24 24 24 24 24 24 26 32 33 30 30 28 31 32 35 37 37 38 37 36 35 35 36 35 35 35 33 32 33 34 35 35 34 33 33 33 33
19 20 21 21 22 23 24 24 24 25 25 24 24 23 31 35 34 33 32 32 33 35 37 37 37 37 38 36 36 32 34 33 33 33 33 34 31 28 35 35 33 33 33 33 33
19 20 21 22 23 23 24 25 25 25 25 25 25 23 34 34 34 34 34 35 35 35 36 36 37 37 38 39 37 34 29 27 32 33 30 28 29 30 35 35 33 34 34 34 34
19 20 21 22 23 24 25 25 25 25 25 25 25 28 34 33 34 35 35 36 36 36 36 36 37 37 39 38 35 29 33 33 32 35 33 30 27 35 36 35 34 34 34 34 33
20 21 22 23 24 24 25 26 26 26 27 24 29 32 35 35 35 35 35 35 37 37 37 37 37 37 38 38 34 34 36 36 34 35 35 35 35 36 36 36 35 35 34 34 34
20 21 22 23 24 24 25 26 30 31 32 35 36 36 36 36 35 35 36 36 36 36 35 37 36 37 39 38 37 37 38 37 36 36 35 37 37 36 36 36 36 35 35 34 34
20 21 22 23 25 25 24 30 34 33 34 36 36 36 36 36 35 36 36 35 36 35 37 36 36 38 38 37 37 37 37 38 38 36 36 36 36 38 36 36 37 36 35 35 35
20 21 23 24 25 26 28 32 32 34 34 35 36 36 36 36 36 36 36 36 35 35 36 36 38 37 37 37 36 37 37 37 37 37 38 38 36 37 37 37 38 37 37 36 35
20 21 22 24 24 30 32 32 33 33 32 34 34 36 36 36 35 36 36 36 36 36 37 37 37 36 36 36 37 36 37 37 36 36 35 39 36 38 37 37 37 38 37 36 36
20 21 23 23 21 30 33 32 33 33 30 35 35 36 37 36 35 35 36 36 35 36 36 36 36 35 35 36 36 36 36 36 36 36 36 37 37 39 38 37 37 38 34 36 37
20 21 23 24 24 27 31 32 32 31 31 34 36 34 35 36 35 35 35 36 37 35 36 36 36 35 35 35 35 36 35 35 36 36 34 37 37 38 38 37 36 32 30 31 27
21 21 22 22 30 31 32 33 30 30 35 34 34 35 35 35 35 35 34 34 34 33 34 35 35 35 34 34 36 35 35 34 35 35 35 39 38 38 38 38 37 35 34 32 25
21 22 23 25 28 30 31 31 29 33 35 36 35 35 34 35 35 35 34 34 35 35 35 34 33 34 35 34 33 34 35 33 32 35 36 39 37 35 37 37 37 37 36 36 36
22 24 24 27 27 30 31 29 30 33 36 35 35 34 34 35 34 34 34 35 34 33 32 34 34 34 34 34 34 34 33 35 34 36 35 38 36 36 37 36 36 36 35 35 35
18 25 29 30 29 30 30 28 33 36 36 35 33 35 34 34 33 33 34 34 33 33 33 33 32 34 33 34 34 33 34 33 35 32 33 36 37 36 35 35 35 35 34 34 34
20 29 31 30 30 30 29 31 33 36 35 34 34 34 35 34 34 34 34 32 33 33 32 33 32 33 33 33 33 33 33 33 34 34 33 33 35 35 35 35 34 34 33 33 33
25 28 30 30 29 30 30 32 30 35 35 35 35 35 34 35 33 33 33 32 32 32 32 32 32 32 33 35 34 33 32 33 32 32 34 34 34 36 35 35 34 33 33 32 32
25 30 29 29 27 29 31 33 35 34 33 34 33 34 34 33 32 33 32 31 31 31 28 30 31 30 32 34 34 32 32 33 33 33 31 31 33 36 35 35 34 33 33 32 31
26 28 29 29 28 28 29 32 32 34 34 34 34 33 32 32 32 31 31 30 30 28 25 28 30 29 29 30 31 31 32 32 32 31 31 32 33 34 34 32 32 32 32 31 30
26 28 26 27 28 28 29 32 32 32 33 33 32 32 32 31 31 30 31 30 29 24 28 29 27 29 29 30 30 30 30 31 30 31 30 31 31 32 32 31 30 29 29 29 29
25 24 25 27 27 27 27 30 31 32 32 31 31 32 32 31 31 30 31 31 30 28 28 29 27 28 27 29 29 29 30 30 30 30 30 30 30 32 32 30 28 27 27 26 26
23 24 23 23 26 27 28 30 31 32 32 32 32 32 31 31 32 32 32 31 30 29 28 28 28 27 26 28 29 28 29 30 30 30 30 28 27 28 28 27 26 26 26 25 26

GFSSW_925_temp_276.txt.gz
Temp
19 20 20 21 21 21 22 22 22 22 23 23 23 24 23 25 28 27 27 31 30 29 28 27 24 24 24 24 24 23 24 26 30 30 31 32 29 30 30 28 29 29 26 25 25
19 20 20 21 21 21 22 22 22 22 22 23 23 24 24 25 26 26 32 31 30 29 27 27 22 21 23 23 24 23 23 28 32 32 31 33 31 29 29 28 28 28 27 26 25
19 19 20 21 21 22 22 22 23 23 23 23 23 24 24 25 25 30 32 31 30 29 28 27 22 23 24 24 24 23 25 31 34 33 33 33 31 31 29 27 28 27 27 26 25
19 19 20 21 21 22 22 23 23 23 23 24 24 24 25 25 30 31 32 30 30 28 27 29 29 25 26 25 24 24 27 30 33 34 34 33 32 30 29 29 29 29 27 27 26
19 19 20 21 21 22 23 23 23 23 23 24 24 24 25 26 27 31 31 30 29 28 28 29 28 30 29 27 23 25 32 33 33 33 32 32 31 31 30 30 29 29 28 27 28
19 20 20 21 22 22 23 23 23 24 24 24 24 24 24 28 32 32 31 29 30 29 29 30 31 33 32 29 28 29 32 31 31 32 31 30 31 30 29 30 30 29 28 28 28
19 20 21 21 22 23 24 24 24 24 24 24 24 23 23 27 32 32 31 31 33 31 30 32 33 32 32 29 31 32 31 30 31 31 30 29 29 29 29 30 29 28 29 28 28
19 20 21 21 22 23 24 24 25 24 24 24 24 23 25 32 32 31 32 31 32 32 31 33 34 33 34 33 31 30 28 28 30 30 30 29 28 29 30 29 28 28 29 29 28
19 20 21 21 22 24 25 25 26 25 24 24 24 23 27 32 31 33 32 31 33 33 33 33 35 32 33 30 28 28 27 28 30 31 30 29 27 30 30 29 28 29 29 29 27
19 20 21 22 22 24 25 27 27 26 25 23 24 25 28 31 33 34 33 33 34 32 32 32 30 30 29 30 28 29 28 29 29 31 30 28 29 30 30 29 29 29 29 28 28
19 20 21 22 23 24 26 27 23 24 24 26 27 28 31 33 34 34 34 35 33 31 30 30 29 28 29 29 33 33 31 31 31 31 29 29 30 30 30 29 29 29 29 28 28
19 20 21 23 24 25 25 22 26 29 26 27 28 29 31 34 32 33 34 32 31 29 30 28 28 30 31 34 33 34 32 31 32 31 29 29 29 31 30 30 30 30 29 29 28
19 20 21 23 25 25 24 26 29 28 25 28 29 29 32 33 31 31 31 32 31 30 30 28 30 33 35 33 32 29 31 31 31 32 31 32 30 30 31 31 31 31 29 29 29
19 19 21 23 24 24 24 30 28 27 22 26 31 32 33 32 32 32 33 33 32 30 30 29 31 34 33 33 30 29 31 32 31 29 29 30 27 27 30 31 31 28 25 26 28
19 19 21 21 21 21 28 27 29 27 23 30 30 34 31 30 32 33 35 32 31 30 30 31 31 31 31 32 31 31 33 32 32 29 28 29 27 28 30 30 27 25 24 24 23
19 20 21 20 20 27 26 28 29 23 24 30 31 31 31 31 32 32 33 32 32 31 30 30 33 32 32 33 33 32 30 26 24 23 24 26 27 26 29 26 25 25 25 23 24
20 21 20 19 22 26 26 23 22 22 28 30 29 29 29 30 30 31 31 30 28 29 28 29 31 32 32 31 28 27 23 22 26 24 25 26 27 26 28 27 27 25 24 23 22
21 22 23 24 25 25 25 21 24 25 27 31 29 27 28 29 30 31 30 27 28 27 24 26 27 31 32 31 30 30 24 22 28 25 26 26 26 26 26 25 25 26 25 24 23
21 22 21 26 26 23 19 20 21 25 29 29 28 28 28 30 30 31 29 27 29 27 27 26 29 30 31 31 30 29 26 26 25 24 24 24 25 26 26 27 27 27 26 24 24
17 18 21 27 25 24 19 20 22 27 28 27 28 28 27 29 30 30 29 30 29 29 26 28 27 28 32 30 30 29 28 25 20 26 25 25 25 25 25 25 27 26 25 24 26
18 17 26 27 26 18 19 19 25 27 28 28 27 27 28 28 27 27 27 28 29 27 24 25 24 27 28 28 28 26 26 23 21 21 23 22 23 24 23 23 23 25 26 25 25
14 19 28 27 20 16 20 24 25 27 27 27 27 28 30 28 26 25 26 28 27 27 26 25 20 23 27 27 28 28 28 22 21 25 20 22 23 24 23 22 22 22 23 22 22
11 14 27 28 21 19 21 25 26 26 26 27 28 30 27 27 25 25 26 25 26 24 25 25 20 20 22 23 24 25 25 25 20 19 23 21 21 24 23 22 21 21 20 20 21
12 17 18 18 18 22 24 24 25 27 26 27 29 28 27 25 24 25 25 26 26 25 24 22 19 20 20 24 24 25 25 25 21 21 21 20 21 22 21 21 20 20 20 21 20
13 17 19 18 20 22 24 24 25 25 27 28 28 28 27 26 25 24 24 24 24 25 25 21 21 24 23 25 25 26 25 26 26 24 22 20 20 21 21 20 21 21 21 20 20
16 16 15 16 17 23 21 25 25 26 27 28 26 26 24 26 26 24 23 23 24 24 24 19 21 23 21 23 23 25 25 25 24 23 21 20 19 21 20 19 19 18 18 18 18
17 18 17 16 17 20 20 21 25 25 25 25 26 26 26 25 25 23 22 21 21 23 21 21 19 18 21 21 22 22 22 22 21 20 20 18 20 20 18 19 18 16 17 17 17

GFSSW_925_temp_282.txt.gz
Temp
19 19 19 20 20 21 21 21 22 22 23 23 23 24 24 25 26 26 27 28 27 27 26 26 26 25 25 24 24 23 23 25 27 27 27 27 26 27 27 26 26 25 23 22 21
18 19 19 20 21 21 21 22 22 22 23 23 24 24 24 24 25 25 28 28 27 26 26 26 26 25 24 24 24 23 24 28 29 28 28 28 27 27 26 26 24 23 23 21 20
19 19 19 20 21 21 22 22 22 23 23 23 24 24 25 25 25 27 27 29 29 26 26 27 26 26 25 25 24 24 26 27 30 29 29 27 27 28 25 25 24 22 22 21 20
19 19 19 20 21 21 22 22 23 23 23 23 24 24 25 25 28 27 27 29 28 27 27 26 26 25 25 25 25 26 27 28 30 30 29 27 28 26 27 26 25 23 22 22 21
18 19 19 20 21 22 22 23 23 23 23 23 24 24 25 26 28 27 27 27 27 26 26 26 27 27 26 26 26 26 27 30 30 29 28 28 27 26 26 25 25 24 23 22 22
18 19 20 20 21 22 23 23 23 23 23 23 24 24 24 29 29 27 28 27 27 26 26 27 27 28 27 27 26 27 27 28 29 29 28 26 27 27 26 25 24 24 23 22 22
18 19 19 20 21 22 22 24 24 24 24 23 23 23 24 29 28 28 28 28 27 27 27 28 29 29 28 27 26 28 28 30 29 28 27 28 27 26 26 25 24 24 23 23 23
18 18 19 20 21 22 23 24 25 25 24 24 23 23 25 29 29 28 28 28 28 28 28 30 30 29 28 28 27 28 27 27 29 28 28 28 26 26 26 25 24 24 24 24 24
18 19 19 20 21 22 24 25 25 25 24 24 23 23 29 30 29 30 30 30 30 30 29 29 30 29 29 27 26 26 27 27 28 28 28 28 26 26 26 25 24 24 24 25 24
17 18 20 21 21 23 25 25 25 24 23 23 23 25 29 30 31 31 31 30 30 29 30 30 25 26 25 26 25 27 27 27 27 28 28 27 26 26 26 26 25 24 24 25 24
18 19 20 21 22 24 25 24 20 22 22 26 27 27 28 31 31 31 31 29 30 29 29 27 27 27 28 27 28 29 28 29 28 28 28 27 26 26 26 26 26 25 24 24 24
18 19 20 22 23 25 25 21 23 23 22 24 24 25 27 30 30 31 32 31 30 30 29 27 29 30 29 28 28 28 28 28 30 28 28 26 27 26 27 27 27 26 26 25 24
18 19 21 22 23 24 22 24 23 23 22 25 25 27 29 29 29 29 30 30 30 29 29 28 30 29 31 30 29 29 27 30 29 27 28 27 27 27 27 26 25 27 26 26 25
18 19 20 22 22 21 23 24 24 24 20 25 27 28 29 29 30 30 30 30 29 29 27 28 29 30 30 30 29 31 31 29 27 26 26 27 25 26 26 26 26 24 24 24 25
18 19 20 21 20 20 25 25 25 24 23 27 28 30 27 29 30 31 30 30 29 29 28 29 29 30 30 30 28 30 28 28 28 25 26 27 25 25 24 25 26 26 25 23 24
19 19 20 19 19 25 24 25 25 21 23 28 28 28 29 29 30 29 30 28 28 28 27 28 27 29 30 28 28 27 26 22 20 21 24 24 23 23 22 22 25 25 23 21 22
20 20 19 18 21 24 24 21 21 21 25 28 28 27 27 28 29 30 29 28 26 26 27 27 28 28 30 30 28 25 23 23 24 23 23 21 21 25 23 23 24 24 22 22 22
20 21 20 22 22 23 24 21 23 23 22 25 26 25 26 26 28 28 27 26 26 24 22 24 27 29 29 29 28 25 24 22 25 22 23 22 21 21 23 23 22 23 22 22 22
20 19 20 20 22 22 19 20 20 21 24 25 25 27 27 27 27 27 26 24 25 24 26 24 27 28 29 28 28 26 24 22 18 19 21 22 24 25 23 23 22 22 23 21 21
17 18 20 21 21 22 18 19 21 21 24 24 25 26 25 26 27 26 25 26 26 25 24 24 26 27 28 27 25 27 22 24 19 22 22 22 23 22 23 20 21 21 21 20 21
17 17 20 21 22 17 19 18 21 22 24 25 25 25 25 26 24 25 24 27 27 23 23 22 23 26 25 23 24 23 23 17 17 17 20 20 21 21 20 21 20 19 19 18 18
12 18 21 21 18 11 18 19 21 24 25 24 24 23 24 24 24 24 25 25 23 25 25 22 19 22 25 24 22 23 23 19 20 22 17 18 19 19 19 20 20 20 19 19 19
12 12 20 22 18 17 18 22 23 24 23 24 24 23 23 24 24 24 24 24 24 25 23 22 19 21 23 23 23 23 23 17 16 16 19 19 19 19 18 18 18 18 18 18 18
12 18 15 13 13 19 20 21 22 24 24 23 24 23 24 23 21 22 24 24 23 21 21 19 15 20 21 22 21 24 23 21 19 19 17 17 18 19 18 17 16 16 17 17 16
11 14 14 16 17 17 18 20 22 23 24 23 23 23 23 23 22 23 23 23 23 22 19 19 19 20 20 21 23 21 22 22 24 19 22 18 17 17 17 16 16 16 16 15 15
13 13 12 13 14 18 17 20 20 21 23 22 22 23 22 21 23 23 21 22 24 21 20 16 19 21 21 20 22 21 20 20 19 18 17 18 17 17 15 15 15 14 14 14 13
14 13 13 14 14 17 18 19 20 19 23 22 22 23 24 23 22 20 19 19 20 22 18 18 16 17 21 18 21 20 18 19 18 18 18 18 16 16 16 15 14 13 13 12 12